EW6887 Weather Reports


Display with metric or nautical units.
time (UTC)temp
F
wind
direction
speed
MPH
gust
MPH
rain 1hr
in
rain 24hr
in
rain mn
in
humidity
%
barometer
mb
20181121181521 34 282 0.0 0.0 0.00 0.01 0.01 87 1018.5
20181121180116 34 283 0.0 0.0 0.00 0.01 0.01 87 1018.4
20181121173156 34 283 0.0 0.0 0.00 0.01 0.01 86 1018.3
20181121170139 35 284 0.0 0.0 0.00 0.01 0.01 85 1017.9
20181121163131 36 284 0.0 0.0 0.00 0.01 0.01 84 1017.7
20181121161526 36 284 0.0 0.0 0.00 0.01 0.01 84 1017.6
20181121160157 36 282 0.0 0.0 0.00 0.01 0.01 83 1017.6
20181121154516 37 295 0.0 0.0 0.00 0.01 0.01 83 1017.5
20181121151524 38 355 0.0 0.0 0.00 0.01 0.01 81 1017.3
20181121144536 38 161 0.0 0.0 0.00 0.01 0.01 78 1017.1
20181121141557 39 205 0.0 0.0 0.00 0.01 0.01 79 1016.8
20181121134557 39 168 0.0 0.0 0.00 0.02 0.01 79 1016.6
20181121131558 39 166 0.0 0.0 0.00 0.02 0.01 78 1016.4
20181121124602 40 318 0.0 0.0 0.00 0.02 0.01 77 1016.4
20181121121612 40 319 0.0 0.0 0.00 0.02 0.01 77 1016.4
20181121114549 39 309 0.0 0.0 0.00 0.02 0.01 80 1016.3
20181121111603 38 293 0.0 0.0 0.00 0.02 0.01 82 1016.2
20181121104509 37 342 0.0 0.0 0.00 0.02 0.01 83 1016.1
20181121103147 37 319 0.0 0.0 0.00 0.02 0.01 83 1016.1
20181121101512 37 311 0.0 0.0 0.00 0.02 0.01 84 1016.0
20181121094538 37 270 0.0 0.0 0.00 0.02 0.01 84 1016.1
20181121091738 36 267 0.0 0.0 0.00 0.02 0.01 84 1016.3
20181121090047 36 265 0.0 0.0 0.00 0.02 0.01 85 1016.3
20181121083028 35 265 0.0 0.0 0.00 0.02 0.01 85 1016.2
20181121081656 35 265 0.0 0.0 0.00 0.02 0.01 85 1016.3
20181121080039 35 254 0.0 0.0 0.00 0.02 0.01 85 1016.4
20181121074613 35 238 0.0 0.0 0.00 0.02 0.01 85 1016.2
20181121073013 35 244 0.0 0.0 0.00 0.02 0.01 86 1016.1
20181121071626 35 281 0.0 0.0 0.00 0.02 0.01 86 1015.9
20181121070012 35 280 0.0 0.0 0.00 0.02 0.01 86 1015.6
20181121063211 35 257 0.0 0.0 0.00 0.02 0.01 87 1015.3
20181121061507 35 282 0.0 0.0 0.00 0.02 0.01 87 1015.1
20181121060151 35 282 0.0 0.0 0.00 0.02 0.01 87 1014.8
20181121054624 35 278 0.0 0.0 0.00 0.02 0.01 87 1014.7
20181121053249 35 281 0.0 0.0 0.00 0.02 0.01 88 1014.5
20181121051518 35 274 0.0 0.0 0.00 0.02 0.01 88 1014.5
20181121050143 35 273 0.0 0.0 0.00 0.02 0.01 88 1014.5
20181121044511 35 273 0.0 0.0 0.00 0.02 0.01 89 1014.4
20181121043130 35 273 0.0 0.0 0.00 0.02 0.01 90 1014.2
20181121041514 35 273 0.0 0.0 0.00 0.02 0.01 90 1014.2
20181121040117 35 273 0.0 0.0 0.00 0.02 0.01 90 1014.1
20181121034532 35 273 0.0 0.0 0.00 0.02 0.01 90 1014.0
20181121033135 35 269 0.0 0.0 0.00 0.02 0.01 90 1013.9
20181121031515 35 268 0.0 0.0 0.00 0.02 0.01 90 1013.7
20181121030249 35 267 0.0 0.0 0.00 0.02 0.01 90 1013.8
20181121024512 35 267 0.0 0.0 0.00 0.02 0.01 90 1013.8
20181121021513 35 267 0.0 0.0 0.01 0.02 0.01 89 1014.1
20181121014526 35 265 0.0 0.0 0.01 0.02 0.01 88 1014.3
20181121011526 35 254 0.0 0.0 0.00 0.02 0.00 89 1014.2
20181121010142 35 238 0.0 0.0 0.00 0.02 0.00 89 1014.1
20181121004637 35 238 0.0 0.0 0.00 0.02 0.00 89 1014.1
20181121001603 34 75 0.0 0.0 0.00 0.02 0.00 93 1014.1
20181120234718 34 76 0.0 0.0 0.00 0.02 0.00 93 1013.9
20181120233037 34 76 0.0 0.0 0.00 0.02 0.00 93 1013.9
20181120231645 34 76 0.0 0.0 0.00 0.02 0.00 93 1013.9
20181120230009 34 76 0.0 0.0 0.00 0.02 0.00 93 1013.8
20181120223108 34 76 0.0 0.0 0.00 0.02 0.02 93 1013.8
20181120220040 34 67 0.0 0.0 0.00 0.02 0.02 92 1013.7
20181120213021 34 66 0.0 0.0 0.00 0.02 0.02 92 1013.5
20181120211755 34 66 0.0 0.0 0.00 0.02 0.02 92 1013.2
20181120210100 34 65 0.0 0.0 0.00 0.02 0.02 91 1013.2
20181120203028 34 327 0.0 0.0 0.00 0.02 0.02 91 1013.1
20181120201629 35 304 0.0 0.0 0.00 0.02 0.02 91 1013.0
20181120200027 35 304 0.0 0.0 0.00 0.02 0.02 91 1013.1
20181120194718 34 304 0.0 0.0 0.00 0.02 0.02 90 1013.0
20181120193008 34 304 0.0 0.0 0.00 0.02 0.02 90 1012.8
20181120191646 34 304 0.0 0.0 0.00 0.02 0.02 89 1012.5
20181120190008 35 304 0.0 0.0 0.00 0.02 0.02 88 1012.5
20181120184720 35 304 0.0 0.0 0.00 0.02 0.02 87 1012.5